Probability
0 0 0 0 0 0 0 0 0 0 0 0 0 0 0 0 1 1 1 1 1 2 3 10 18 21 20 20 17 12 7 5 7 5 2 0 0 0 0 0 0 0 0 0 0 0 0 0 0
0 0 0 0 0 0 0 0 0 0 0 0 0 0 0 0 1 2 2 1 1 1 2 9 20 26 25 22 15 10 6 5 7 5 2 1 0 0 0 0 0 0 0 0 0 0 0 0 0
0 0 0 0 0 0 0 0 0 0 0 0 0 0 0 0 1 1 1 1 1 1 2 9 22 30 30 24 16 9 6 5 5 4 2 1 0 0 0 0 0 0 0 0 0 0 0 0 0
0 0 0 0 0 0 0 0 0 0 0 0 0 0 0 0 1 1 1 1 1 1 2 9 21 29 30 26 18 11 6 4 3 2 1 1 0 0 0 0 0 0 0 0 0 0 0 0 0
0 0 0 0 0 0 0 0 0 0 0 0 0 0 0 1 2 3 3 3 2 1 1 7 16 23 26 24 21 14 7 2 1 1 1 0 0 0 0 0 0 0 0 0 0 0 0 0 0
0 0 0 0 0 0 0 0 0 0 0 0 0 0 0 1 2 4 5 6 4 2 2 4 9 14 17 19 18 15 8 3 1 2 2 1 0 0 0 0 0 0 0 0 0 0 0 0 0
0 0 0 0 0 0 0 0 0 0 0 0 0 0 0 1 2 3 5 6 6 5 3 3 4 6 8 10 12 12 9 4 2 3 3 2 1 0 0 0 0 0 0 0 0 0 0 0 0
0 0 0 0 0 0 0 0 0 0 0 0 0 0 0 0 1 1 2 3 4 5 4 4 2 2 2 3 6 10 10 6 4 3 3 2 1 0 0 0 0 0 0 0 0 0 0 0 0
0 0 0 0 0 0 0 0 0 0 0 0 0 0 0 0 0 0 0 1 1 2 3 2 1 0 1 1 3 7 9 7 4 3 2 2 1 0 0 0 0 0 1 1 1 0 0 0 0
0 0 0 0 0 0 0 0 0 0 0 0 0 0 0 0 0 0 0 0 0 0 1 1 0 0 0 0 1 4 6 5 3 3 3 2 2 1 0 0 0 0 1 2 1 0 0 0 0
0 0 0 0 0 0 0 0 0 0 0 0 0 0 0 0 0 0 0 0 0 0 0 0 0 0 0 0 0 1 2 3 3 2 2 2 2 1 1 0 0 0 1 1 0 0 0 0 0
0 0 0 0 0 0 0 0 0 0 0 0 0 0 0 0 0 0 0 0 0 0 0 0 0 0 0 0 0 1 2 2 3 2 1 1 1 1 1 0 0 0 0 0 0 0 0 0 0
0 0 0 0 0 0 0 0 0 0 0 0 0 0 0 0 0 0 0 0 0 0 0 0 0 0 0 0 0 1 2 2 3 2 1 0 0 0 0 0 0 0 0 0 0 0 0 0 0
0 0 0 0 0 0 0 0 0 0 0 0 0 0 0 0 0 0 0 0 0 0 0 0 0 0 0 0 0 0 1 1 2 1 0 0 0 0 0 0 0 0 0 0 0 0 0 0 0
0 0 0 0 0 0 0 0 0 0 0 0 0 0 0 0 0 0 0 0 0 0 0 0 0 0 0 0 0 0 0 0 1 2 1 0 0 0 0 0 0 0 0 0 0 0 0 0 0
0 0 0 0 0 0 0 0 0 0 0 0 0 0 0 0 0 0 0 0 0 0 0 0 0 0 0 0 0 0 0 0 1 2 2 1 0 0 0 0 0 0 0 0 0 0 0 0 0
0 0 0 0 0 0 0 0 0 0 0 0 0 0 0 0 0 0 0 0 0 0 0 0 0 0 0 0 0 0 0 0 0 1 1 1 0 1 1 1 0 1 1 1 0 0 0 0 1
0 0 0 0 0 0 0 0 0 0 0 0 0 0 0 0 0 0 0 0 0 0 0 0 1 0 0 0 0 0 0 0 0 0 0 0 0 1 1 1 1 2 2 1 0 0 0 0 1
0 0 0 0 0 0 0 0 0 0 0 0 0 0 0 0 0 0 0 0 0 0 0 0 0 0 0 0 0 0 0 0 0 0 0 0 0 0 1 1 2 4 4 2 0 0 0 0 1
0 0 0 0 0 0 0 0 0 0 0 0 0 0 0 0 0 0 0 0 0 0 0 0 0 0 0 0 0 0 0 0 0 0 0 0 0 1 1 2 2 4 5 4 1 0 0 0 0
0 0 0 0 0 0 0 0 0 0 0 0 0 0 0 0 0 0 0 0 0 0 0 0 0 0 0 0 0 0 0 0 0 0 0 0 0 1 2 3 3 4 5 4 3 1 1 0 0
0 0 0 0 0 0 0 0 0 0 0 0 0 0 0 0 0 0 0 0 0 0 0 0 0 0 0 0 0 0 0 0 0 0 0 0 0 2 3 3 3 3 4 4 3 2 1 0 0
0 0 0 0 0 0 0 0 0 0 0 0 0 0 0 0 0 0 0 0 0 0 0 0 0 0 0 0 0 0 0 0 0 0 0 0 0 1 2 3 4 3 3 4 3 3 1 1 0
0 0 0 0 0 0 0 0 0 0 0 0 0 0 0 0 0 0 0 0 0 0 0 0 0 0 0 0 0 0 0 0 0 0 0 0 0 0 1 3 4 4 3 3 3 3 2 1 1
0 0 0 0 0 0 0 0 0 0 0 0 0 0 0 0 0 0 0 0 0 0 0 0 0 0 0 0 0 0 0 0 0 0 0 0 0 0 1 3 4 3 3 3 3 3 3 2 2
0 0 0 0 0 0 0 0 0 0 0 0 0 0 0 0 0 0 0 0 0 0 0 0 0 0 0 0 0 0 0 0 0 0 0 0 1 2 2 3 3 3 3 3 3 3 3 3 2
0 0 0 0 0 0 0 0 0 0 0 0 0 0 0 0 0 0 0 0 0 0 0 0 0 0 0 0 0 0 0 0 0 0 0 0 1 2 3 3 2 2 3 3 3 3 3 3 2
0 0 0 0 0 0 0 0 0 0 0 0 0 0 0 0 0 0 0 0 0 0 0 0 0 0 0 0 0 0 0 0 0 0 0 0 1 1 2 3 2 2 2 3 3 3 3 3 3
0 0 0 0 0 0 0 0 0 0 0 0 0 0 0 0 0 0 0 0 0 0 0 0 0 0 0 0 0 0 0 0 0 0 0 0 1 1 1 2 2 1 1 2 2 2 2 2 2
0 0 0 0 0 0 0 0 0 0 0 0 0 0 0 0 0 0 0 0 0 0 0 0 0 0 0 0 0 0 0 0 0 0 0 0 1 0 0 1 1 0 0 1 1 1 1 1 1
Wind_Speed
3 3 2 4 6 3 3 5 3 1 2 2 1 6 8 5 4 6 3 3 2 3 3 6 8 9 10 10 10 10 10 10 10 10 10 11 11 11 10 10 10 10 9 9 9 10 11 11 10
1 1 4 5 5 3 4 4 4 3 3 2 3 5 7 5 3 5 1 2 3 3 3 4 7 8 9 10 9 9 10 10 10 10 10 10 10 10 10 10 10 9 9 9 9 10 10 10 9
1 1 4 4 4 6 5 3 5 2 1 2 4 5 5 4 3 2 2 1 4 3 2 3 6 7 8 9 9 9 9 10 10 10 10 10 10 9 9 9 9 8 8 9 9 9 9 9 8
3 4 4 3 4 4 4 2 2 2 3 4 5 6 5 4 2 1 2 4 4 3 2 2 5 6 7 7 8 8 8 9 10 10 10 10 9 9 9 9 9 8 8 9 9 9 9 8 7
4 4 3 1 3 3 3 2 1 2 2 3 5 6 4 4 3 3 4 5 4 2 1 2 3 4 6 6 7 7 8 8 9 10 10 10 10 9 9 9 9 9 9 9 9 9 9 8 7
4 4 4 3 3 2 2 2 1 2 2 3 5 5 2 2 3 4 4 5 4 2 2 1 1 2 3 5 5 6 7 8 8 9 10 10 10 10 10 9 10 10 10 10 9 9 9 8 7
4 4 5 5 3 1 2 2 2 3 3 2 3 5 2 2 2 3 5 5 5 4 3 2 1 0 1 3 3 4 6 7 7 8 8 9 9 9 10 10 10 10 10 10 10 10 9 9 7
4 4 3 2 3 2 2 2 2 3 2 2 3 6 3 2 1 4 5 5 5 4 3 3 2 1 1 1 3 3 4 5 6 7 7 7 8 8 9 9 10 10 10 10 10 10 10 9 7
3 4 2 1 2 1 1 3 3 3 4 4 3 3 3 1 2 5 5 5 5 4 3 2 2 2 1 1 2 3 3 4 5 5 7 6 4 5 6 8 9 10 10 10 11 10 9 8 6
4 3 2 1 1 2 2 3 2 4 5 4 4 3 3 3 4 5 4 4 4 4 4 2 2 2 2 2 1 1 2 2 3 3 4 3 4 4 6 8 10 10 10 10 11 11 9 6 3
3 4 2 1 1 1 2 3 2 4 2 1 1 1 3 4 4 3 2 2 2 3 3 3 3 2 2 2 1 1 1 2 2 3 4 3 3 3 4 3 5 6 7 5 6 6 4 4 3
3 1 2 1 2 2 2 1 3 2 3 3 2 1 1 2 2 2 2 3 3 3 3 3 3 2 2 2 2 2 2 2 2 3 4 3 3 3 3 3 4 4 3 4 4 3 4 5 5
3 1 2 2 3 2 2 2 1 2 4 2 1 1 1 1 2 2 2 2 3 4 4 4 3 3 3 2 2 2 2 3 3 4 4 4 4 4 4 4 4 4 4 5 4 4 5 5 5
3 2 1 2 2 2 2 1 1 4 2 1 1 1 1 1 2 2 3 3 4 4 5 4 4 3 3 3 3 3 3 3 3 3 5 5 5 5 5 5 5 5 5 5 5 6 6 5 4
3 3 3 2 1 1 2 3 2 4 0 1 2 2 3 2 2 2 3 3 4 4 5 5 5 4 3 4 4 3 3 3 3 3 4 5 5 6 5 5 5 5 6 6 5 5 4 4 4
3 4 2 2 0 0 3 3 4 3 0 2 3 3 3 3 3 3 3 4 4 4 5 5 5 4 4 4 4 3 3 3 3 3 3 5 6 6 5 5 5 6 5 5 5 5 5 5 4
4 2 1 2 1 1 2 4 5 3 1 2 3 3 3 4 4 4 4 4 4 4 5 5 5 5 5 5 4 4 3 3 3 3 3 4 5 6 5 5 5 6 5 5 6 5 5 5 5
2 2 1 3 2 0 2 5 6 4 2 3 3 3 4 4 5 4 4 4 4 4 4 5 5 5 5 4 3 3 3 3 2 2 3 4 4 5 5 5 5 6 5 5 5 5 5 4 4
3 3 1 3 2 1 3 6 8 5 3 3 3 3 3 4 4 4 4 4 4 5 5 5 5 5 3 2 2 2 3 2 2 2 3 3 4 4 5 4 4 5 5 6 6 4 5 4 3
3 3 0 2 1 1 3 7 7 5 4 4 3 3 3 3 5 5 4 4 4 5 5 5 6 5 4 3 3 2 2 2 2 2 2 2 3 3 4 4 4 5 5 5 5 4 3 3 4
2 2 2 1 3 2 2 6 4 3 2 1 1 1 2 3 4 5 5 5 5 5 5 6 6 5 5 4 2 1 1 1 1 1 1 2 2 2 2 3 3 4 4 4 5 5 6 4 4
1 1 1 0 2 3 0 4 6 3 3 2 2 2 2 3 3 4 5 6 6 6 6 6 5 5 4 3 2 2 2 2 2 1 1 2 2 1 1 1 1 2 2 3 4 4 4 5 4
2 1 0 0 1 2 1 2 8 2 4 5 3 2 2 2 3 3 4 5 5 5 5 5 5 4 4 3 2 2 2 1 1 1 1 1 2 1 1 0 1 1 1 2 2 2 3 3 4
0 2 3 3 2 2 4 4 7 4 5 4 3 3 3 3 3 3 4 4 5 5 5 5 4 4 3 3 2 1 1 1 0 0 1 1 1 1 1 1 0 1 1 1 2 2 3 2 3
4 4 3 4 2 5 2 3 9 5 4 4 4 4 3 2 2 3 4 5 6 6 6 5 4 4 3 3 2 1 1 0 1 0 0 1 1 1 2 1 0 0 1 2 2 2 2 2 2
0 3 4 2 3 5 3 6 7 4 3 2 3 3 3 3 3 3 4 4 5 6 5 5 5 4 3 3 2 2 1 0 1 0 1 1 1 1 1 1 0 0 1 1 1 1 1 1 1
1 1 3 3 1 4 6 6 7 2 2 2 3 2 3 4 3 3 3 3 4 5 5 4 5 4 3 2 2 2 2 1 1 1 1 0 1 1 1 1 0 1 1 1 2 1 1 1 1
2 2 3 2 1 4 6 5 5 5 5 4 4 4 4 3 3 3 3 3 3 3 4 4 4 4 3 3 2 2 2 2 2 1 1 1 1 1 1 1 1 1 1 1 1 1 1 1 1
2 1 2 1 2 2 5 8 6 6 6 6 6 5 4 4 4 3 3 2 2 3 3 3 4 4 3 3 2 3 3 2 2 1 1 1 1 1 1 1 1 2 1 1 1 1 1 1 1
4 4 4 2 3 3 3 10 4 5 5 5 6 5 5 4 4 3 2 2 2 3 3 3 3 3 3 2 2 2 2 2 2 2 1 1 1 1 1 1 2 2 2 1 1 0 0 0 1
Wind_Direction
336 3 70 62 66 73 218 239 235 200 182 214 110 104 105 82 104 140 232 307 122 140 156 150 146 147 147 145 146 151 151 151 150 147 144 143 142 141 139 138 137 136 132 125 122 125 122 119 117
19 35 64 68 104 154 242 240 220 220 209 159 84 83 81 78 78 99 2 343 97 119 129 144 145 146 149 150 151 153 159 161 159 155 153 152 151 151 151 148 143 143 138 131 127 128 129 127 126
12 79 92 95 147 182 207 218 202 203 357 104 78 59 79 83 77 82 324 38 81 88 114 134 144 148 150 153 156 160 165 170 168 164 163 163 161 160 159 155 150 147 143 139 138 136 137 136 134
75 62 65 103 199 221 208 212 198 136 45 44 90 66 56 23 64 106 24 71 78 66 85 130 137 146 151 157 160 168 173 175 175 172 170 171 171 169 165 158 153 149 149 150 150 147 146 145 144
70 91 97 140 221 251 251 260 187 110 91 48 81 85 61 352 44 57 51 57 70 48 44 129 133 143 154 161 171 174 180 182 181 180 179 180 179 178 171 163 159 159 160 162 163 162 159 157 155
73 85 115 178 212 250 282 299 78 89 89 64 76 87 90 320 39 38 46 48 56 57 32 78 114 133 161 170 180 188 192 192 190 188 188 187 185 183 178 172 169 170 171 172 172 171 167 167 167
111 115 152 169 178 225 299 352 76 105 76 39 97 97 121 332 12 42 49 47 42 42 36 21 28 102 182 187 194 201 206 204 202 197 195 193 190 187 184 180 179 180 180 179 178 177 176 178 180
127 111 135 163 163 194 325 35 48 77 86 10 78 114 152 236 354 50 46 38 32 31 24 9 7 10 332 230 206 207 214 214 211 206 203 198 196 195 191 187 187 188 188 186 184 184 186 187 190
90 85 131 166 158 197 353 59 11 23 59 34 45 105 155 171 56 45 32 20 15 11 2 358 354 343 328 275 236 218 220 222 217 210 206 201 199 197 195 194 192 193 194 192 191 192 191 191 196
83 116 162 248 180 152 44 68 43 49 42 32 31 27 34 43 43 42 29 9 0 348 342 345 327 313 302 281 284 252 233 228 221 212 205 201 196 198 197 198 197 196 197 197 197 196 193 188 193
106 146 161 5 18 80 61 29 23 91 52 159 133 344 8 30 22 18 359 338 321 319 330 337 321 299 291 286 271 258 248 233 228 219 210 201 195 197 196 188 195 197 196 196 200 197 192 189 192
99 95 120 28 12 49 58 48 30 75 200 206 189 218 1 8 349 329 315 312 313 319 315 319 319 313 292 279 267 244 243 235 227 225 215 197 195 198 193 193 191 189 189 191 193 192 195 198 204
94 92 64 51 39 55 79 74 81 272 248 248 297 5 357 334 314 297 282 297 306 308 307 305 306 303 292 283 271 259 241 240 235 224 216 204 199 202 200 198 194 195 191 191 194 199 201 205 211
131 93 34 3 13 9 81 343 60 267 273 356 14 340 313 298 299 320 329 315 307 302 300 300 300 291 286 279 271 259 247 243 239 230 220 208 203 202 199 200 198 199 198 198 197 200 202 208 209
99 76 20 332 340 335 63 351 246 253 333 341 313 303 301 295 296 288 279 284 283 289 291 293 291 291 288 280 271 269 255 248 239 237 228 215 209 204 201 199 201 204 200 199 198 202 198 205 210
67 64 26 305 224 262 102 269 269 268 219 272 289 299 302 297 289 281 280 284 282 284 288 288 294 291 282 277 273 268 259 252 245 238 232 224 216 210 205 202 204 202 198 195 197 198 198 207 209
53 95 202 293 276 136 144 247 269 283 222 256 280 287 291 299 305 299 300 294 291 286 288 290 292 288 282 276 270 264 260 254 252 245 234 229 222 213 208 210 208 198 197 199 202 199 197 203 210
163 160 202 242 260 265 243 256 275 284 236 252 269 280 290 301 304 316 323 317 309 302 300 297 299 294 288 279 275 271 268 263 259 250 245 238 231 223 211 215 210 199 196 202 202 200 201 201 204
145 139 179 250 255 256 243 264 275 275 262 261 273 286 301 301 305 329 333 337 340 336 325 313 308 302 299 286 271 260 259 261 264 255 250 245 238 229 218 220 211 202 201 202 198 196 198 204 176
106 109 54 310 301 270 268 276 270 256 233 229 235 260 283 313 331 338 340 344 341 332 326 318 310 306 299 278 255 237 236 240 245 263 274 262 247 235 228 216 210 203 203 200 196 191 192 194 177
53 147 177 244 335 344 343 306 284 274 232 214 234 250 290 312 323 330 335 333 333 328 322 315 308 307 303 297 276 269 265 294 289 300 308 299 278 260 242 229 214 203 201 204 199 194 195 195 192
23 233 166 82 31 305 65 292 280 266 278 266 288 322 324 333 334 332 335 333 326 318 318 310 309 311 311 306 272 231 223 232 249 261 285 317 311 310 296 247 218 208 202 199 201 198 198 185 189
216 274 299 157 121 305 266 232 282 288 274 276 277 291 303 316 323 328 326 318 318 320 319 312 312 315 318 317 295 249 242 232 244 292 342 332 326 330 327 310 201 199 201 189 185 197 190 192 188
284 26 36 50 69 285 232 194 276 245 238 268 271 273 282 302 318 323 321 325 328 333 330 328 324 323 327 328 327 313 242 211 161 305 300 322 313 319 337 10 145 196 187 184 183 183 181 191 186
50 65 37 4 345 261 238 209 252 247 234 232 244 255 268 284 303 314 323 329 334 338 338 339 339 332 336 343 343 350 317 177 168 220 262 294 314 319 330 334 344 250 190 174 165 165 170 186 187
60 123 144 195 249 288 292 243 255 255 242 233 234 243 256 276 289 298 308 316 324 331 336 341 342 334 339 345 344 360 347 4 29 339 272 269 278 286 301 298 291 161 146 149 148 159 175 168 185
146 164 169 144 271 278 275 279 294 231 246 246 249 253 258 262 274 288 302 315 320 330 336 338 340 340 342 344 348 3 6 23 8 346 321 291 296 315 330 317 36 59 101 128 139 140 165 156 175
162 145 96 120 245 285 288 268 253 250 246 247 250 254 261 266 271 278 292 309 318 327 336 344 347 346 347 356 358 18 16 17 10 25 27 29 12 11 26 25 41 47 57 84 115 129 128 134 180
178 172 158 178 197 212 285 275 230 223 221 226 238 242 245 250 260 272 285 299 313 328 337 343 350 353 359 4 16 27 16 19 21 23 21 28 33 45 46 32 42 41 41 60 89 108 115 163 225
188 193 163 176 247 219 237 270 259 219 220 219 237 242 240 240 250 258 272 300 320 327 333 340 345 354 358 8 25 28 28 34 36 21 12 25 35 36 38 41 52 40 23 38 64 49 69 188 248